[[{"header":{"parameterUnit":"m.s-1","parameterCategory":1,"la1":30.2991,"la2":30.254,"lo1":-89.0895,"lo2":-89.0444,"dy":0.0017,"dx":0.0017,"nx":28,"ny":28,"refTime":"2023-08-25T21:00:00:Z","depth":0,"parameterNumber":2,"parameterNumberName":"U-component_of_WINDS"},"data":[0,0,0,0,0,0,0,0,0,0,0,0,0,0,0,0,0,0,0,0,0,0,0,0,0,0,0,0,0,0,0,0,0,0,0,0,0,0,0,0,0,0,0,0,0,0,0,0,0,0,0,0,0,0,0,0,0,0,1.6203,1.6205,0,1.6392,1.6394,1.6396,1.6412,1.641,1.6408,1.6406,1.6604,1.6611,1.6618,0,0,0,0,0,0,0,0,0,0,0,0,0,1.586,1.5867,1.6203,1.6206,1.6208,1.6391,1.6394,1.6397,1.6412,1.641,1.6407,1.6405,1.6601,1.661,1.6618,0,0,0,0,0,0,0,0,0,0,0,0,0,1.6025,1.5869,1.6203,1.6238,1.6243,1.6391,1.6394,1.6397,1.6413,1.641,1.6407,1.6404,1.6598,1.6609,1.6619,1.6747,0,0,1.6652,1.6657,0,0,0,0,0,0,0,0,1.6016,1.6038,1.623,1.6236,1.6242,1.6375,1.6346,1.6515,1.6414,1.6349,1.6406,1.6402,1.653,1.6546,1.6589,1.6756,1.6765,1.6653,1.666,1.6664,1.6667,0,0,0,0,0,0,0,1.6004,1.603,1.6278,1.6233,1.624,1.6245,1.6265,1.6378,1.6454,1.6354,1.6356,1.6377,1.6533,1.6578,1.6593,1.6767,1.6653,1.6662,1.6669,1.6673,1.7047,1.7051,0,0,0,0,0,0,1.5986,1.602,1.6272,1.6284,1.6119,1.6254,1.6276,1.6336,1.6453,1.6468,1.638,1.6377,1.6561,1.6581,1.66,1.6756,1.6664,1.6674,1.668,1.7044,1.7048,1.7052,0,0,0,0,0,0,1.5978,1.6008,1.6264,1.6152,1.6185,1.6263,1.6329,1.6341,1.6386,1.6473,1.6487,1.6412,1.656,1.6585,1.671,1.6763,1.6679,1.6689,1.704,1.7045,1.705,1.7068,0,0,0,0,0,0,1.5969,1.6005,1.6054,1.6153,1.6191,1.6369,1.6333,1.6347,1.6404,1.6403,1.6506,1.6521,1.6559,1.6693,1.672,1.6776,1.6697,1.7035,1.7042,1.7048,1.7063,1.7073,1.7082,0,0,0,0,0,1.5956,1.6053,1.6056,1.6086,1.6253,1.6372,1.6394,1.6435,1.6408,1.6458,1.6513,1.6518,1.6753,1.6706,1.6736,1.6796,1.7032,1.704,1.7048,1.7059,1.7071,1.7082,0,0,0,0,0,0,1.5959,1.6066,1.6071,1.6203,1.6278,1.6375,1.6438,1.6448,1.6533,1.6529,1.6578,1.6601,1.6723,1.6773,1.6718,1.6925,1.689,1.6904,1.6888,1.6901,1.691,1.6895,1.6706,0,0,0,0,0,1.5975,1.6061,1.6151,1.6258,1.6296,1.6361,1.6414,1.6439,1.652,1.6552,1.6617,1.6696,1.6788,1.6847,1.6937,1.7071,1.7093,1.7127,1.7137,1.7144,1.7155,1.7229,1.7244,1.7078,1.7078,1.7078,0,0,1.6008,1.6078,1.613,1.6261,1.6322,1.6411,1.6387,1.6483,1.655,1.6567,1.6687,1.6738,1.683,1.6959,1.7019,1.7004,1.7207,1.7154,1.7159,1.7167,1.7238,1.7254,1.7268,1.7083,1.7082,1.7081,0,0,1.6114,1.6176,1.6271,1.6333,1.6425,1.6468,1.6491,1.6586,1.662,1.6741,1.6755,1.6836,1.6994,1.7058,1.7111,1.7241,1.7247,1.7269,1.7318,1.7389,1.7402,1.7414,1.7459,1.7474,1.728,1.728,1.7281,0,1.6145,1.6278,1.632,1.6414,1.6471,1.649,1.6586,1.6645,1.6762,1.6802,1.6783,1.6979,1.7043,1.7186,1.7218,1.7261,1.7288,1.7257,1.7397,1.7409,1.7421,1.7464,1.7481,1.7282,1.7282,1.7282,1.7282,0,1.631,1.6403,1.6469,1.658,1.6645,1.674,1.6796,1.6857,1.6877,1.6921,1.7044,1.7121,1.7225,1.7261,1.7283,1.7408,1.7396,1.7386,1.7352,1.7438,1.7479,1.7496,1.7285,1.7284,1.7284,1.7283,0,0,1.6423,1.6554,1.6578,1.6628,1.6731,1.6804,1.6901,1.7001,1.7051,1.7132,1.7214,1.7346,1.7338,1.7398,1.7427,1.7489,1.7585,1.7473,1.7475,1.7489,1.7727,1.7732,1.775,1.7591,1.7594,1.7597,1.7719,0,1.6539,1.6709,1.6749,1.6895,1.6981,1.7,1.7084,1.7157,1.7201,1.7281,1.7331,1.7423,1.7406,1.7442,1.7505,1.756,1.7633,1.7552,1.7667,1.7671,1.7641,1.7772,1.7778,1.7889,1.7735,1.7738,1.774,0,1.6697,1.6779,1.6933,1.7024,1.7062,1.7136,1.7231,1.7307,1.739,1.7418,1.7485,1.7507,1.7609,1.757,1.7711,1.7654,1.7704,1.7739,1.7744,1.7755,1.7709,1.7785,1.7926,1.7942,1.7766,1.7764,1.7762,0,1.6761,1.6911,1.7022,1.7064,1.7174,1.7225,1.7274,1.7354,1.7411,1.7495,1.7532,1.7627,1.7679,1.7752,1.7799,1.7767,1.7936,1.7901,1.7962,1.7961,1.7995,1.7992,1.8144,1.803,1.803,1.803,1.8029,0,1.6885,1.6979,1.7052,1.712,1.7225,1.727,1.7374,1.7422,1.7493,1.7572,1.7595,1.7669,1.7727,1.7809,1.7847,1.7957,1.7981,1.8006,1.8015,1.8003,1.7999,1.8035,1.8028,1.8034,1.8033,1.8032,1.8032,0,1.6974,1.7026,1.7148,1.7242,1.7267,1.734,1.7421,1.7488,1.7533,1.7632,1.7658,1.7729,1.7826,1.7881,1.8004,1.8029,1.8151,1.8157,1.8122,1.8126,1.8182,1.8175,1.8361,1.8387,1.8257,1.8258,1.8259,0,1.7049,1.712,1.7221,1.7274,1.7323,1.7409,1.7467,1.7515,1.7575,1.7675,1.773,1.7828,1.7909,1.8064,1.8127,1.8221,1.8228,1.8287,1.8243,1.8228,1.8227,1.8221,1.8228,1.8294,1.8295,1.8296,1.8297,0,1.7175,1.7197,1.728,1.7371,1.744,1.7514,1.7589,1.7631,1.7692,1.7758,1.7857,1.7919,1.8044,1.8141,1.824,1.8291,1.8304,1.831,1.8329,1.8317,1.8293,1.8305,1.8141,1.8306,1.8305,1.8304,1.8304,1.8303,1.7258,1.7322,1.7402,1.7493,1.7553,1.7622,1.7689,1.7742,1.7825,1.7928,1.7953,1.8056,1.8138,1.8272,1.8325,1.8407,1.8397,1.8424,1.8431,1.8436,1.8437,1.8281,1.8426,1.8426,1.8426,1.8426,1.8426,0,1.7384,1.7436,1.7519,1.7621,1.7693,1.7698,1.778,1.784,1.793,1.8005,1.8083,1.8196,1.8291,1.8361,1.8457,1.851,1.8518,1.8533,1.8529,1.854,1.8442,1.8415,1.8525,1.8525,1.8525,1.8525,1.8525,1.8525,1.7458,1.7566,1.7597,1.7736,1.7788,1.7889,1.7935,1.7998,1.8058,1.8182,1.826,1.8305,1.8378,1.848,1.8566,1.8585,1.8618,1.8632,1.8651,1.8558,1.8547,1.8537,1.8512,1.864,1.864,1.8742,1.8743,1.8744]},{"header":{"parameterUnit":"m.s-1","parameterCategory":1,"la1":30.2991,"la2":30.254,"lo1":-89.0895,"lo2":-89.0444,"dy":0.0017,"dx":0.0017,"nx":28,"ny":28,"refTime":"2023-08-25T21:00:00:Z","depth":0,"parameterNumber":3,"parameterNumberName":"V-component_of_WINDS"},"data":[0,0,0,0,0,0,0,0,0,0,0,0,0,0,0,0,0,0,0,0,0,0,0,0,0,0,0,0,0,0,0,0,0,0,0,0,0,0,0,0,0,0,0,0,0,0,0,0,0,0,0,0,0,0,0,0,0,0,3.0997,3.0997,0,3.1019,3.102,3.102,3.0967,3.0965,3.0963,3.0962,3.0985,3.0987,3.0989,0,0,0,0,0,0,0,0,0,0,0,0,0,3.0905,3.0907,3.0997,3.0997,3.0997,3.1019,3.102,3.102,3.0967,3.0965,3.0963,3.0961,3.0984,3.0987,3.0989,0,0,0,0,0,0,0,0,0,0,0,0,0,3.0938,3.0907,3.0997,3.0973,3.0972,3.1019,3.102,3.102,3.0968,3.0965,3.0962,3.096,3.0983,3.0986,3.099,3.106,0,0,3.1,3.1001,0,0,0,0,0,0,0,0,3.0936,3.0941,3.0977,3.0975,3.0973,3.0988,3.0995,3.1033,3.0968,3.0969,3.0962,3.0959,3.0988,3.099,3.1,3.1061,3.1062,3.1,3.1002,3.1003,3.1004,0,0,0,0,0,0,0,3.0934,3.094,3.1006,3.0977,3.0975,3.0961,3.0963,3.1002,3.0992,3.0969,3.0965,3.0968,3.0986,3.0997,3.1,3.1063,3.1,3.1003,3.1005,3.1006,3.1179,3.1182,0,0,0,0,0,0,3.0935,3.0938,3.1005,3.1006,3.0948,3.0965,3.0967,3.0986,3.0992,3.099,3.0971,3.0966,3.0993,3.0997,3.1001,3.1082,3.1003,3.1006,3.1008,3.1176,3.118,3.1182,0,0,0,0,0,0,3.0933,3.0941,3.1004,3.0971,3.0978,3.0969,3.099,3.0987,3.0998,3.0993,3.0991,3.0984,3.0991,3.0996,3.1045,3.1082,3.1008,3.1011,3.1173,3.1177,3.1181,3.1245,0,0,0,0,0,0,3.0931,3.0941,3.0969,3.0972,3.098,3.1049,3.0993,3.099,3.1004,3.0998,3.1005,3.1004,3.0989,3.1041,3.1048,3.1085,3.1013,3.117,3.1175,3.118,3.124,3.1251,3.126,0,0,0,0,0,3.0927,3.0987,3.097,3.0979,3.1015,3.1051,3.1055,3.1038,3.1007,3.1034,3.103,3.1003,3.1077,3.1046,3.1054,3.1092,3.1168,3.1174,3.1179,3.1235,3.1249,3.126,0,0,0,0,0,0,3.0988,3.0987,3.0969,3.1031,3.1041,3.1042,3.1076,3.1054,3.1073,3.1067,3.1044,3.1046,3.1098,3.11,3.1066,3.1159,3.1117,3.1125,3.1156,3.1169,3.1179,3.1177,3.1016,0,0,0,0,0,3.1009,3.1039,3.1036,3.1091,3.1097,3.1086,3.1101,3.1086,3.1096,3.11,3.11,3.1111,3.1135,3.1152,3.1175,3.124,3.1239,3.127,3.128,3.1289,3.1295,3.1326,3.1339,3.1202,3.1202,3.1202,0,0,3.1052,3.1055,3.1075,3.1103,3.111,3.114,3.109,3.1125,3.1147,3.1106,3.1151,3.1151,3.1161,3.1217,3.1242,3.122,3.1333,3.1296,3.1303,3.1305,3.1334,3.1347,3.1358,3.1206,3.1205,3.1205,0,0,3.1145,3.1152,3.1196,3.1203,3.1213,3.1204,3.1215,3.1218,3.1216,3.1262,3.123,3.1256,3.13,3.1307,3.1317,3.1409,3.1384,3.1417,3.1471,3.1501,3.1512,3.1521,3.1552,3.1564,3.1424,3.1424,3.1425,0,3.1198,3.1242,3.1222,3.1258,3.127,3.1234,3.1278,3.1285,3.1302,3.1311,3.1286,3.1339,3.1343,3.1399,3.1421,3.1431,3.1441,3.1416,3.1512,3.1521,3.153,3.1559,3.1571,3.1428,3.1428,3.1427,3.1427,0,3.1304,3.1336,3.1371,3.1386,3.1402,3.1443,3.1427,3.1446,3.1429,3.1422,3.1467,3.1471,3.1492,3.1504,3.1489,3.1557,3.1543,3.1516,3.1472,3.1547,3.1574,3.1585,3.1434,3.1432,3.1431,3.143,0,0,3.1439,3.144,3.1453,3.1458,3.1465,3.1488,3.1525,3.1546,3.156,3.1573,3.1602,3.1639,3.1613,3.1624,3.1609,3.1636,3.1705,3.1605,3.1605,3.1622,3.1777,3.1796,3.181,3.1689,3.1691,3.1693,3.1776,0,3.1529,3.1592,3.1573,3.1637,3.1664,3.1628,3.166,3.1666,3.1661,3.1682,3.1676,3.1701,3.1666,3.1672,3.1697,3.1692,3.1736,3.1686,3.1714,3.1716,3.1712,3.1824,3.1845,3.1923,3.1786,3.1788,3.1789,0,3.1643,3.1657,3.1723,3.1722,3.1732,3.1762,3.1777,3.1798,3.1804,3.1798,3.1809,3.1787,3.1822,3.1779,3.1825,3.1791,3.1802,3.1801,3.1803,3.1804,3.1756,3.1826,3.1948,3.1959,3.1806,3.1805,3.1803,0,3.173,3.1767,3.181,3.1816,3.1816,3.1837,3.1838,3.1841,3.1854,3.1867,3.1874,3.1892,3.1901,3.1915,3.1898,3.1869,3.1946,3.1902,3.1941,3.1941,3.1958,3.1957,3.2081,3.1968,3.1967,3.1967,3.1967,0,3.1832,3.1873,3.1849,3.1875,3.1919,3.1897,3.1941,3.1938,3.194,3.1964,3.1935,3.1958,3.1935,3.1956,3.1943,3.1982,3.1987,3.1982,3.1978,3.1984,3.1984,3.199,3.1983,3.197,3.197,3.1969,3.1969,0,3.1938,3.1923,3.1967,3.1963,3.1963,3.1995,3.1991,3.2014,3.2005,3.2036,3.2042,3.2029,3.2051,3.2036,3.2059,3.205,3.2101,3.209,3.2098,3.2095,3.2133,3.2129,3.2264,3.228,3.2158,3.2159,3.216,0,3.2003,3.2033,3.2031,3.2044,3.2047,3.207,3.2081,3.206,3.2073,3.208,3.2102,3.2122,3.2137,3.2174,3.2166,3.2183,3.2171,3.2217,3.2174,3.2178,3.2169,3.2167,3.2169,3.2226,3.2227,3.2229,3.2229,0,3.2119,3.2109,3.2127,3.2142,3.2156,3.2167,3.2175,3.2188,3.2165,3.2181,3.2203,3.2215,3.2237,3.2256,3.227,3.227,3.2246,3.2243,3.2252,3.2258,3.2261,3.2258,3.2121,3.224,3.2239,3.2238,3.2238,3.2237,3.2205,3.2229,3.223,3.225,3.2253,3.2261,3.2281,3.2274,3.2292,3.2308,3.2294,3.232,3.2322,3.2337,3.234,3.236,3.2341,3.2355,3.2358,3.2362,3.2366,3.2259,3.2362,3.2362,3.2362,3.2362,3.2361,0,3.2317,3.2316,3.2334,3.2345,3.236,3.2335,3.2342,3.2356,3.2379,3.2383,3.2397,3.2421,3.2439,3.2432,3.2447,3.2464,3.2453,3.2469,3.2467,3.2467,3.2383,3.2373,3.2477,3.2477,3.2477,3.2477,3.2477,3.2477,3.2378,3.2416,3.2406,3.2444,3.2442,3.2466,3.2472,3.2478,3.2481,3.2509,3.2523,3.2518,3.2517,3.2531,3.2546,3.2543,3.255,3.2569,3.2562,3.2484,3.2473,3.2462,3.2452,3.2571,3.2571,3.2644,3.2644,3.2645]}]]